TimeCDT,TemperatureF,Dew PointF,Humidity,Sea Level PressureIn,VisibilityMPH,Wind Direction,Wind SpeedMPH,Gust SpeedMPH,PrecipitationIn,Events,Conditions,WindDirDegrees,DateUTC
12:32 AM,28.4,24.8,86,29.86,10.0,NNE,11.5,-,0.00,,Overcast,20,2013-04-12 05:32:00
12:53 AM,28.0,23.0,81,29.90,10.0,NNE,11.5,-,0.00,,Overcast,20,2013-04-12 05:53:00
1:49 AM,28.4,23.0,80,29.85,10.0,NNE,11.5,-,N/A,,Overcast,20,2013-04-12 06:49:00
1:53 AM,28.0,23.0,81,29.89,10.0,NNE,12.7,-,N/A,,Overcast,20,2013-04-12 06:53:00
2:53 AM,28.0,23.0,81,29.88,10.0,NNE,13.8,-,N/A,,Overcast,30,2013-04-12 07:53:00
3:53 AM,28.0,23.0,81,29.87,10.0,NNE,11.5,-,N/A,,Overcast,30,2013-04-12 08:53:00
4:53 AM,28.0,23.0,81,29.87,10.0,NNE,9.2,-,N/A,,Overcast,30,2013-04-12 09:53:00
5:32 AM,28.4,23.0,80,29.83,1.8,NNE,11.5,-,0.00,Snow,Light Snow,30,2013-04-12 10:32:00
5:53 AM,28.0,24.1,85,29.87,1.8,NNE,10.4,-,0.00,Snow,Light Snow,30,2013-04-12 10:53:00
6:04 AM,28.4,24.8,86,29.83,2.5,NNE,9.2,-,0.00,Snow,Light Snow,20,2013-04-12 11:04:00
6:11 AM,28.4,24.8,86,29.83,4.0,North,8.1,-,0.01,Snow,Light Snow,10,2013-04-12 11:11:00
6:53 AM,28.0,24.1,85,29.87,3.0,North,-9999.0,-,0.01,Snow,Light Snow,0,2013-04-12 11:53:00
6:57 AM,28.4,24.8,86,29.83,1.8,NNE,9.2,-,0.00,Snow,Light Snow,20,2013-04-12 11:57:00
7:10 AM,28.4,24.8,86,29.84,1.2,NNE,10.4,-,0.00,Snow,Light Snow,20,2013-04-12 12:10:00
7:18 AM,28.4,24.8,86,29.84,1.2,NNE,10.4,-,0.00,Snow,Light Snow,20,2013-04-12 12:18:00
7:31 AM,28.4,24.8,86,29.84,2.5,North,-9999.0,-,0.00,Snow,Light Snow,0,2013-04-12 12:31:00
7:38 AM,28.4,24.8,86,29.84,3.0,North,-9999.0,-,0.00,Snow,Light Snow,0,2013-04-12 12:38:00
7:53 AM,28.0,24.1,85,29.88,4.0,North,-9999.0,-,0.00,Snow,Light Snow,0,2013-04-12 12:53:00
8:07 AM,28.4,24.8,86,29.84,1.8,NNE,10.4,-,0.00,Snow,Light Snow,20,2013-04-12 13:07:00
8:45 AM,28.4,24.8,86,29.84,1.8,NNE,9.2,-,0.00,Snow,Light Snow,20,2013-04-12 13:45:00
8:53 AM,28.9,24.1,82,29.88,1.5,NNE,11.5,-,0.00,Snow,Light Snow,20,2013-04-12 13:53:00
9:03 AM,28.4,24.8,86,29.84,1.8,NNE,10.4,-,0.00,Snow,Light Snow,20,2013-04-12 14:03:00
9:10 AM,28.4,24.8,86,29.84,1.8,NNE,10.4,-,0.00,Snow,Light Snow,20,2013-04-12 14:10:00
9:21 AM,28.4,24.8,86,29.84,2.5,North,-9999.0,-,0.00,Snow,Light Snow,0,2013-04-12 14:21:00
9:35 AM,30.2,24.8,80,29.84,2.5,North,-9999.0,-,N/A,Snow,Light Snow,0,2013-04-12 14:35:00
9:51 AM,28.4,24.8,86,29.84,3.0,NNE,12.7,21.9,0.00,Snow,Light Snow,30,2013-04-12 14:51:00
9:53 AM,28.9,24.1,82,29.88,3.0,NNE,18.4,34.5,0.00,Snow,Light Snow,30,2013-04-12 14:53:00
10:46 AM,30.2,24.8,80,29.85,2.0,NNE,12.7,-,0.00,Snow,Light Snow,20,2013-04-12 15:46:00
10:53 AM,30.9,26.1,82,29.89,2.5,North,13.8,-,0.00,Snow,Light Snow,10,2013-04-12 15:53:00
11:02 AM,30.2,24.8,80,29.85,3.0,NNE,15.0,-,0.00,Snow,Light Snow,20,2013-04-12 16:02:00
11:25 AM,30.2,24.8,80,29.86,8.0,North,12.7,-,0.00,,Overcast,10,2013-04-12 16:25:00
11:35 AM,30.2,24.8,80,29.86,7.0,North,16.1,-,0.00,,Overcast,10,2013-04-12 16:35:00
11:53 AM,30.0,25.0,82,29.90,4.0,North,15.0,-,0.00,Snow,Light Snow,360,2013-04-12 16:53:00
12:04 PM,30.2,24.8,80,29.86,2.0,North,15.0,-,0.00,Snow,Light Snow,360,2013-04-12 17:04:00
12:26 PM,30.2,26.6,86,29.86,1.5,North,16.1,-,0.00,Snow,Light Snow,360,2013-04-12 17:26:00
12:42 PM,30.2,24.8,80,29.86,1.5,North,15.0,-,0.00,Snow,Light Snow,360,2013-04-12 17:42:00
12:53 PM,30.9,26.1,82,29.90,1.5,North,15.0,-,0.00,Snow,Light Snow,360,2013-04-12 17:53:00
1:16 PM,30.2,26.6,86,29.86,2.0,North,-9999.0,-,0.00,Snow,Light Snow,0,2013-04-12 18:16:00
1:28 PM,30.2,26.6,86,29.86,3.0,North,-9999.0,-,0.00,Snow,Light Snow,0,2013-04-12 18:28:00
1:53 PM,32.0,26.1,79,29.90,4.0,North,-9999.0,-,0.00,Snow,Light Snow,0,2013-04-12 18:53:00
2:07 PM,32.0,26.6,80,29.86,5.0,North,-9999.0,-,0.00,,Haze,0,2013-04-12 19:07:00
2:41 PM,33.8,26.6,75,29.86,8.0,North,16.1,-,0.00,,Overcast,360,2013-04-12 19:41:00
2:53 PM,33.1,26.1,75,29.90,10.0,North,17.3,-,0.00,,Overcast,360,2013-04-12 19:53:00
3:53 PM,33.1,26.1,75,29.90,10.0,North,12.7,-,N/A,,Overcast,350,2013-04-12 20:53:00
4:11 PM,32.0,26.6,80,29.86,7.0,North,15.0,-,0.00,Snow,Light Snow,360,2013-04-12 21:11:00
4:26 PM,33.8,26.6,75,29.86,10.0,North,13.8,24.2,0.00,,Overcast,360,2013-04-12 21:26:00
4:51 PM,32.0,26.6,80,29.86,9.0,North,13.8,-,0.00,,Overcast,360,2013-04-12 21:51:00
4:53 PM,32.0,27.0,82,29.90,9.0,North,13.8,-,0.00,,Overcast,360,2013-04-12 21:53:00
5:02 PM,33.8,26.6,75,29.86,10.0,North,15.0,-,N/A,,Overcast,360,2013-04-12 22:02:00
5:41 PM,32.0,26.6,80,29.88,2.5,NNW,12.7,-,0.00,Snow,Light Snow,340,2013-04-12 22:41:00
5:45 PM,32.0,26.6,80,29.88,1.8,NNW,12.7,-,0.00,Snow,Light Snow,340,2013-04-12 22:45:00
5:53 PM,30.9,28.0,89,29.92,1.0,NNW,15.0,-,0.00,Snow,Light Snow,340,2013-04-12 22:53:00
6:00 PM,30.2,28.4,93,29.88,0.5,North,11.5,-,0.01,Fog-Snow,Light Snow,360,2013-04-12 23:00:00
6:14 PM,30.2,28.4,93,29.88,1.5,NNW,12.7,-,0.01,Snow,Light Snow,340,2013-04-12 23:14:00
6:29 PM,30.2,26.6,86,29.88,3.0,NNW,13.8,-,0.01,Snow,Light Snow,340,2013-04-12 23:29:00
6:36 PM,30.2,26.6,86,29.89,5.0,North,-9999.0,-,0.01,Snow,Light Snow,0,2013-04-12 23:36:00
6:45 PM,30.2,26.6,86,29.89,10.0,NNW,13.8,-,0.01,,Overcast,340,2013-04-12 23:45:00
6:53 PM,30.9,27.0,85,29.93,10.0,NNW,13.8,-,0.01,,Overcast,340,2013-04-12 23:53:00
7:12 PM,30.2,26.6,86,29.89,1.8,NNW,13.8,-,0.00,Snow,Light Snow,330,2013-04-13 00:12:00
7:27 PM,30.2,26.6,86,29.89,2.5,NNW,13.8,-,0.00,Snow,Light Snow,340,2013-04-13 00:27:00
7:53 PM,30.9,27.0,85,29.93,3.0,NNW,10.4,-,0.00,Snow,Light Snow,340,2013-04-13 00:53:00
8:06 PM,30.2,26.6,86,29.89,2.0,NW,9.2,-,0.00,Snow,Light Snow,320,2013-04-13 01:06:00
8:16 PM,30.2,26.6,86,29.89,2.5,NW,9.2,-,0.00,Snow,Light Snow,320,2013-04-13 01:16:00
8:23 PM,30.2,26.6,86,29.89,3.0,NW,12.7,-,0.00,Snow,Light Snow,320,2013-04-13 01:23:00
8:36 PM,30.2,26.6,86,29.89,3.0,NNW,11.5,-,0.00,Snow,Light Snow,330,2013-04-13 01:36:00
8:53 PM,30.0,27.0,88,29.93,4.0,NW,9.2,-,0.00,Snow,Light Snow,320,2013-04-13 01:53:00
9:21 PM,30.2,26.6,86,29.90,2.5,NW,9.2,-,0.00,Snow,Light Snow,310,2013-04-13 02:21:00
9:28 PM,30.2,26.6,86,29.90,2.5,NW,9.2,-,0.00,Snow,Light Snow,320,2013-04-13 02:28:00
9:37 PM,30.2,26.6,86,29.90,4.0,NW,9.2,-,0.00,Snow,Light Snow,320,2013-04-13 02:37:00
9:53 PM,30.0,26.1,85,29.94,3.0,NW,11.5,-,0.00,Snow,Light Snow,320,2013-04-13 02:53:00
10:12 PM,30.2,26.6,86,29.90,1.8,NW,11.5,-,0.00,Snow,Light Snow,320,2013-04-13 03:12:00
10:22 PM,30.2,26.6,86,29.90,2.0,NW,10.4,-,0.00,Snow,Light Snow,320,2013-04-13 03:22:00
10:34 PM,30.2,26.6,86,29.90,1.8,NW,8.1,-,0.00,Snow,Light Snow,310,2013-04-13 03:34:00
10:43 PM,30.2,26.6,86,29.90,2.5,NW,10.4,-,0.00,Snow,Light Snow,310,2013-04-13 03:43:00
10:48 PM,30.2,26.6,86,29.90,3.0,NW,11.5,-,0.00,Snow,Light Snow,310,2013-04-13 03:48:00
10:53 PM,30.0,26.1,85,29.94,3.0,NW,10.4,-,0.00,Snow,Light Snow,320,2013-04-13 03:53:00
11:05 PM,28.4,26.6,93,29.90,3.0,NW,10.4,-,N/A,Snow,Light Snow,320,2013-04-13 04:05:00
11:26 PM,30.2,26.6,86,29.90,3.0,NW,9.2,-,0.00,Snow,Light Snow,310,2013-04-13 04:26:00
11:53 PM,28.9,26.1,89,29.94,4.0,NW,9.2,-,0.00,Snow,Light Snow,320,2013-04-13 04:53:00